time_stamp(utc),avg(mph),gust(mph),direction(deg),12m_air_temp(f),sonic_u(cm/s),sonic_v(cm/s),sonic_w(cm/s),pressure,2m_air_temp(f),pyranometer(W/m^2)
"2017-04-06 00:00:21+00",12.6,14.6,,45.9,518,-203,18,1013.52,46,0
"2017-04-06 00:05:21+00",9.9,12.9,,46,370,-224,33,1013.8,46.1,0
"2017-04-06 00:10:21+00",10.8,12.8,,46,382,-290,5,1014.19,46.1,0
"2017-04-06 00:15:21+00",10.7,11.7,,46.1,410,-252,6,1014.18,46.1,0
"2017-04-06 00:20:21+00",13.7,15.7,,46.1,551,-253,5,1014.06,46.1,0
"2017-04-06 00:25:21+00",15.7,17.7,,46.1,637,-283,21,1013.8,46.2,0
"2017-04-06 00:30:21+00",14.7,16.7,,46.1,599,-262,23,1014.06,46.2,0
"2017-04-06 00:35:21+00",18.8,20.8,,46,772,-323,-7,1013.62,46.1,0
"2017-04-06 00:40:21+00",18.7,20.7,,46,775,-289,2,1013.52,46.1,0
"2017-04-06 00:45:21+00",16.3,19.3,,46,685,-244,21,1013.7,46,0
"2017-04-06 00:50:21+00",14.3,16.3,,45.9,576,-281,-4,1014.22,46.1,0
"2017-04-06 00:55:21+00",16.3,19.3,,45.9,582,-428,12,1014.27,46,0
"2017-04-06 01:00:21+00",14.9,16.9,,45.8,559,-319,8,1014.63,45.9,0
"2017-04-06 01:05:21+00",15.4,17.4,,45.8,587,-341,15,1014.41,45.9,0
"2017-04-06 01:10:21+00",16.7,18.7,,45.8,628,-405,3,1014.41,45.9,0
"2017-04-06 01:15:21+00",14.7,16.7,,45.8,517,-394,2,1014.58,45.9,0
"2017-04-06 01:20:21+00",17.0,19.0,,45.7,554,-499,0,1014.79,45.9,0
"2017-04-06 01:25:21+00",16.0,18.0,,45.6,523,-467,-2,1014.95,45.8,0
"2017-04-06 01:30:21+00",16.5,19.5,,45.6,507,-507,-6,1015.15,45.7,0
"2017-04-06 01:35:21+00",16.4,19.4,,45.4,426,-572,-9,1015.08,45.6,0
"2017-04-06 01:40:21+00",13.7,15.7,,45.4,477,-372,12,1014.86,45.5,0
"2017-04-06 01:45:21+00",17.1,20.1,,45.1,628,-407,-3,1014.68,45.4,0
"2017-04-06 01:50:21+00",16.0,18.0,,45,581,-378,20,1014.52,45.3,0
"2017-04-06 01:55:21+00",16.5,18.5,,44.8,588,-421,16,1014.7,45.2,0
"2017-04-06 02:00:21+00",14.8,17.8,,44.7,496,-422,33,1014.78,45,0
"2017-04-06 02:05:21+00",17.8,20.8,,44.5,577,-521,-15,1014.75,45,0
"2017-04-06 02:10:21+00",18.9,20.9,,44.2,629,-566,2,1014.43,44.8,0
"2017-04-06 02:15:21+00",18.9,21.9,,44.2,646,-543,-4,1014.34,44.7,0
"2017-04-06 02:20:21+00",21.2,23.2,,43.9,731,-567,2,1014.04,44.5,0
"2017-04-06 02:25:21+00",22.5,26.5,,43.9,769,-630,-8,1013.62,44.5,0
"2017-04-06 02:30:21+00",24.0,27.0,,43.8,897,-565,19,1013.31,44.4,0
"2017-04-06 02:35:21+00",21.2,25.2,,44,784,-515,20,1013.12,44.5,0
"2017-04-06 02:40:21+00",22.6,27.6,,43.9,790,-623,12,1012.97,44.4,0
"2017-04-06 02:45:21+00",18.1,23.1,,44.1,598,-512,49,1013.11,44.5,0
"2017-04-06 02:50:21+00",22.7,25.7,,43.9,800,-585,7,1013.08,44.3,0
"2017-04-06 02:55:21+00",24.7,26.7,,43.7,821,-718,-5,1012.97,44.3,0
"2017-04-06 03:00:21+00",23.1,29.1,,43.9,783,-677,3,1012.82,44.4,0
"2017-04-06 03:05:21+00",20.5,23.5,,44.2,714,-547,20,1012.67,44.6,0
"2017-04-06 03:10:21+00",23.8,27.8,,44,849,-603,4,1012.46,44.5,0
"2017-04-06 03:15:21+00",22.6,24.6,,44.1,815,-544,-5,1012.64,44.6,0
"2017-04-06 03:20:21+00",21.3,25.3,,44.5,809,-481,16,1012.59,44.8,0
"2017-04-06 03:25:21+00",21.5,25.5,,44.4,791,-500,27,1012.52,44.9,0
"2017-04-06 03:30:21+00",18.2,20.2,,44.6,713,-357,16,1012.77,44.9,0
"2017-04-06 03:35:21+00",18.3,22.3,,44.7,726,-340,-4,1012.9,45,0
"2017-04-06 03:40:21+00",17.8,19.8,,44.8,680,-400,6,1013.1,45.1,0
"2017-04-06 03:45:21+00",16.9,19.9,,44.8,634,-378,8,1013.15,45.1,0
"2017-04-06 03:50:21+00",16.1,18.1,,45,639,-316,1,1013.19,45.3,0
"2017-04-06 03:55:21+00",14.2,16.2,,45.1,550,-252,-12,1013.46,45.4,0
"2017-04-06 04:00:21+00",13.0,15.0,,45.3,505,-263,3,1013.5,45.5,0
"2017-04-06 04:05:21+00",15.1,17.1,,45.2,622,-223,0,1013.26,45.5,0
"2017-04-06 04:10:21+00",15.2,17.2,,45.2,649,-146,-7,1013.03,45.5,0
"2017-04-06 04:15:21+00",14.0,16.0,,45.4,583,-170,12,1013.06,45.7,0
"2017-04-06 04:20:21+00",14.6,15.6,,45.4,624,-155,16,1013.01,45.7,0
"2017-04-06 04:25:21+00",13.9,16.9,,45.4,574,-238,7,1013.04,45.7,0
"2017-04-06 04:30:21+00",12.7,14.7,,45.5,520,-171,21,1013.06,45.7,0
"2017-04-06 04:35:21+00",14.6,17.6,,45.5,623,-147,29,1012.97,45.7,0
"2017-04-06 04:40:21+00",12.5,15.5,,45.7,538,-106,27,1013.11,45.8,0
"2017-04-06 04:45:21+00",14.1,16.1,,45.7,612,-11,30,1012.93,45.9,0
"2017-04-06 04:50:21+00",14.1,17.1,,45.7,611,-42,29,1012.84,45.9,0
"2017-04-06 04:55:21+00",15.5,17.5,,45.7,673,-63,22,1012.59,45.9,0
"2017-04-06 05:00:21+00",18.3,20.3,,45.7,783,-183,4,1012.51,45.9,0
"2017-04-06 05:05:21+00",16.9,17.9,,45.8,716,-147,43,1012.27,46,0
"2017-04-06 05:10:21+00",21.6,24.6,,45.8,935,-173,33,1011.69,46,0
"2017-04-06 05:15:21+00",21.7,23.7,,46,936,-184,6,1011.49,46.1,0
"2017-04-06 05:20:21+00",21.0,24.0,,45.9,909,-186,11,1011.65,46.1,0
"2017-04-06 05:25:21+00",17.4,21.4,,46,766,-149,38,1011.48,46.2,0
"2017-04-06 05:30:21+00",19.3,22.3,,46,845,-173,24,1011.6,46.2,0
"2017-04-06 05:35:21+00",19.5,21.5,,45.9,817,-264,4,1011.84,46.2,0
"2017-04-06 05:40:21+00",19.8,21.8,,46,828,-245,20,1011.91,46.2,0
"2017-04-06 05:45:21+00",18.7,21.7,,46,794,-199,38,1011.68,46.2,0
"2017-04-06 05:50:21+00",19.5,24.5,,46.2,833,-199,7,1011.32,46.4,0
"2017-04-06 05:55:21+00",21.1,23.1,,46.1,891,-255,13,1011.26,46.3,0
"2017-04-06 06:00:21+00",18.0,22.0,,46.2,764,-198,56,1011.4,46.4,0
"2017-04-06 06:05:21+00",21.0,24.0,,46.2,894,-231,13,1011.37,46.4,0
"2017-04-06 06:10:21+00",20.9,24.9,,46.2,892,-218,17,1011.41,46.4,0
"2017-04-06 06:15:21+00",19.5,22.5,,46.2,833,-180,27,1011.25,46.4,0
"2017-04-06 06:20:21+00",20.0,23.0,,46.2,869,-172,30,1011.14,46.4,0
"2017-04-06 06:25:21+00",18.5,23.5,,46.3,815,-170,50,1011.07,46.5,0
"2017-04-06 06:30:21+00",18.0,20.0,,46.3,771,-157,48,1011.15,46.5,0
"2017-04-06 06:35:21+00",19.9,22.9,,46.1,870,-76,34,1010.94,46.4,0
"2017-04-06 06:40:21+00",21.8,22.8,,46,933,-219,3,1010.94,46.3,0
"2017-04-06 06:45:21+00",18.5,22.5,,45.9,803,-146,41,1011.1,46.2,0
"2017-04-06 06:50:21+00",17.2,20.2,,45.9,756,-77,60,1010.99,46.1,0
"2017-04-06 06:55:21+00",17.0,20.0,,45.7,742,-71,18,1011.08,46,0
"2017-04-06 07:00:21+00",14.9,17.9,,45.8,652,-8,53,1011.07,46,0
"2017-04-06 07:05:21+00",19.0,21.0,,45.7,836,-46,49,1010.88,46,0
"2017-04-06 07:10:21+00",17.8,20.8,,45.7,760,-75,49,1010.75,45.9,0
"2017-04-06 07:15:21+00",21.3,25.3,,45.7,921,7,60,1010.21,46,0
"2017-04-06 07:20:21+00",20.7,23.7,,45.7,881,30,80,1010.18,45.9,0
"2017-04-06 07:25:21+00",21.8,24.8,,45.7,932,67,77,1009.94,45.9,0
"2017-04-06 07:30:21+00",19.1,22.1,,45.7,823,78,59,1009.75,45.8,0
"2017-04-06 07:35:21+00",22.6,24.6,,45.6,982,179,59,1009.63,45.7,0
"2017-04-06 07:40:21+00",15.7,19.7,,45.5,667,200,63,1009.74,45.6,0
"2017-04-06 07:45:21+00",13.1,15.1,,45.5,534,243,48,1010.09,45.5,0
"2017-04-06 07:50:21+00",15.4,17.4,,45.4,600,326,14,1010.05,45.5,0
"2017-04-06 07:55:21+00",16.4,19.4,,45.4,680,297,21,1009.87,45.4,0
"2017-04-06 08:00:21+00",18.1,20.1,,45.3,768,285,44,1009.39,45.4,0
"2017-04-06 08:05:21+00",20.9,22.9,,45.3,903,304,59,1008.97,45.4,0
"2017-04-06 08:10:21+00",22.7,25.7,,45.2,974,279,67,1008.83,45.4,0
"2017-04-06 08:15:21+00",23.6,25.6,,45.2,1017,276,59,1008.86,45.3,0
"2017-04-06 08:20:21+00",23.0,25.0,,45.2,1002,367,35,1008.63,45.3,0
"2017-04-06 08:25:21+00",22.8,24.8,,45.1,1006,394,12,1008.65,45.3,0
"2017-04-06 08:30:21+00",21.5,24.5,,45.3,898,358,74,1008.57,45.3,0
"2017-04-06 08:35:21+00",23.5,27.5,,45.3,1069,344,42,1008.36,45.3,0
"2017-04-06 08:40:21+00",22.2,24.2,,45.3,901,407,51,1008.43,45.3,0
"2017-04-06 08:45:21+00",21.5,25.5,,45.4,898,329,51,1008.4,45.4,0
"2017-04-06 08:50:21+00",23.4,26.4,,45.3,986,383,45,1008.27,45.3,0
"2017-04-06 08:55:21+00",23.6,26.6,,45.2,988,388,51,1008.22,45.4,0
"2017-04-06 09:00:21+00",23.1,26.1,,45.1,979,357,59,1008.13,45.2,0
"2017-04-06 09:05:21+00",22.1,25.1,,45.1,926,348,55,1008.06,45.2,0
"2017-04-06 09:10:21+00",24.6,26.6,,45,1047,354,55,1007.93,45.2,0
"2017-04-06 09:15:21+00",22.6,26.6,,45,969,261,78,1007.83,45.2,0
"2017-04-06 09:20:21+00",24.2,28.2,,45,1044,356,79,1007.33,45.3,0
"2017-04-06 09:25:21+00",24.0,28.0,,45,1029,289,76,1007.35,45.2,0
"2017-04-06 09:30:21+00",21.8,23.8,,45,937,246,65,1007.54,45.3,0
"2017-04-06 09:35:21+00",20.8,22.8,,45.1,899,220,71,1007.28,45.2,0
"2017-04-06 09:40:21+00",23.4,26.4,,45.1,1009,277,72,1007.2,45.2,0
"2017-04-06 09:45:21+00",21.6,24.6,,45.2,930,166,79,1007.06,45.2,0
"2017-04-06 09:50:21+00",25.1,27.1,,45.2,1090,154,73,1006.94,45.2,0
"2017-04-06 09:55:21+00",22.4,25.4,,45.4,967,173,87,1007.08,45.3,0
"2017-04-06 10:00:21+00",23.4,26.4,,45.3,1004,265,67,1006.9,45.2,0
"2017-04-06 10:05:21+00",27.0,30.0,,45.3,1165,381,69,1006.65,45.3,0
"2017-04-06 10:10:21+00",20.1,23.1,,45.4,887,24,68,1007.26,45.4,0
"2017-04-06 10:15:21+00",21.5,25.5,,45.5,937,144,84,1007.27,45.4,0
"2017-04-06 10:20:21+00",20.7,24.7,,45.5,892,230,54,1007.39,45.4,0
"2017-04-06 10:25:21+00",21.4,25.4,,45.4,924,224,59,1007.24,45.5,0
"2017-04-06 10:30:21+00",20.4,22.4,,45.6,880,204,92,1006.88,45.6,0
"2017-04-06 10:35:21+00",20.2,24.2,,45.6,879,206,77,1006.69,45.6,0
"2017-04-06 10:40:21+00",26.0,28.0,,45.5,1142,64,65,1006.52,45.6,0
"2017-04-06 10:45:21+00",25.3,27.3,,45.5,1093,315,82,1006.33,45.7,0
"2017-04-06 10:50:21+00",21.2,24.2,,45.5,905,295,46,1006.41,45.6,0
"2017-04-06 10:55:21+00",22.2,25.2,,45.6,974,230,61,1006.19,45.6,0
"2017-04-06 11:00:21+00",22.7,25.7,,45.6,987,199,83,1005.92,45.7,0
"2017-04-06 11:05:21+00",25.1,30.1,,45.5,1086,283,94,1005.76,45.6,0
"2017-04-06 11:10:21+00",23.7,26.7,,45.5,1049,121,57,1005.78,45.6,0
"2017-04-06 11:15:21+00",21.6,23.6,,45.4,940,188,72,1005.76,45.6,0
"2017-04-06 11:20:21+00",21.3,23.3,,45.5,929,238,86,1005.78,45.6,0
"2017-04-06 11:25:21+00",22.6,26.6,,45.6,992,182,82,1005.58,45.7,0
"2017-04-06 11:30:21+00",19.3,22.3,,45.5,810,317,54,1005.63,45.5,0
"2017-04-06 11:35:21+00",18.0,21.0,,45.7,772,244,43,1005.78,45.7,0
"2017-04-06 11:40:21+00",17.3,22.3,,45.7,699,320,60,1005.81,45.7,0
"2017-04-06 11:45:21+00",17.2,18.2,,45.6,679,340,35,1005.66,45.7,0
"2017-04-06 11:50:21+00",18.3,22.3,,45.6,746,342,68,1005.33,45.7,0
"2017-04-06 11:55:21+00",18.8,20.8,,45.5,757,365,36,1005.14,45.6,0
"2017-04-06 12:00:21+00",19.2,23.2,,45.5,784,356,42,1004.71,45.6,0
"2017-04-06 12:05:21+00",18.5,20.5,,45.5,760,333,45,1004.68,45.7,0
"2017-04-06 12:10:21+00",19.4,22.4,,45.6,836,300,66,1004.38,45.7,0
"2017-04-06 12:15:21+00",16.6,19.6,,45.6,675,308,36,1004.38,45.7,0
"2017-04-06 12:20:21+00",20.1,22.1,,45.6,863,319,51,1004.16,45.7,0
"2017-04-06 12:25:21+00",18.8,21.8,,45.6,809,300,53,1004.23,45.8,0
"2017-04-06 12:30:21+00",18.2,21.2,,45.7,756,314,21,1004.04,45.9,0
"2017-04-06 12:35:21+00",16.1,18.1,,46.1,697,207,45,1003.74,46.2,0
"2017-04-06 12:40:21+00",18.3,22.3,,46.8,805,147,55,1003.34,46.9,0
"2017-04-06 12:45:21+00",18.5,21.5,,46.8,823,109,57,1003.09,46.9,0.1
"2017-04-06 12:50:21+00",15.2,18.2,,46.9,667,89,58,1003.09,47,0
"2017-04-06 12:55:21+00",17.0,19.0,,47.2,752,6,34,1003.14,47.4,0.8
"2017-04-06 13:00:21+00",18.5,20.5,,47.3,817,-94,13,1002.98,47.4,2.2
"2017-04-06 13:05:21+00",13.2,15.2,,47.6,589,9,43,1003.01,47.7,0
"2017-04-06 13:10:21+00",17.5,20.5,,47.2,770,-37,47,1002.64,47.5,19.9
"2017-04-06 13:15:21+00",18.0,22.0,,47.1,796,-85,36,1002.23,47.4,25.3
"2017-04-06 13:20:21+00",16.1,18.1,,47.6,690,-173,19,1002.16,47.7,27.9
"2017-04-06 13:25:21+00",16.6,18.6,,47.5,728,-42,55,1001.91,47.8,16.1
"2017-04-06 13:30:21+00",16.0,19.0,,47.8,697,-133,18,1001.71,48,16.2
"2017-04-06 13:35:21+00",17.0,20.0,,48.5,726,-195,4,1001.55,48.6,28.3
"2017-04-06 13:40:21+00",14.6,16.6,,48.6,623,-156,17,1001.49,48.8,25.9
"2017-04-06 13:45:21+00",13.7,15.7,,48.7,589,-112,36,1001.44,48.9,28.5
"2017-04-06 13:50:21+00",14.2,17.2,,48.8,622,-62,22,1001.24,49,30.2
"2017-04-06 13:55:21+00",10.8,12.8,,49.1,460,-96,12,1001.29,49.3,25.4
"2017-04-06 14:00:21+00",12.2,14.2,,49.5,519,-127,18,1001.31,49.6,34.6
"2017-04-06 14:05:21+00",12.1,15.1,,49.8,478,-239,17,1001.28,50,23.5
"2017-04-06 14:10:21+00",14.6,17.6,,50.2,544,-339,12,1001.13,50.3,15.8
"2017-04-06 14:15:21+00",14.9,16.9,,50.1,595,-280,7,1000.97,50.4,32.3
"2017-04-06 14:20:21+00",12.8,14.8,,50.2,507,-259,4,1000.69,50.5,41.8
"2017-04-06 14:25:21+00",10.0,12.0,,50.4,365,-244,-6,1000.48,50.7,11.3
"2017-04-06 14:30:21+00",12.5,14.5,,50.8,418,-348,-5,1000.27,50.9,17.7
"2017-04-06 14:35:21+00",15.1,18.1,,51.7,382,-543,-7,1000.19,51.6,25
"2017-04-06 14:40:21+00",13.3,15.3,,51.7,300,-491,21,1000.2,51.8,35.9
"2017-04-06 14:45:21+00",14.5,16.5,,51.6,289,-558,5,1000.03,51.7,44.9
"2017-04-06 14:50:21+00",13.2,16.2,,51.1,239,-519,19,999.91,51.4,55
"2017-04-06 14:55:21+00",16.4,18.4,,51.1,241,-640,-1,999.74,51.3,60.8
"2017-04-06 15:00:21+00",15.3,19.3,,51.2,184,-628,-5,999.59,51.4,65.6
"2017-04-06 15:05:21+00",11.3,14.3,,51.6,73,-473,-5,999.41,51.7,62.1
"2017-04-06 15:10:21+00",11.2,15.2,,51.9,-87,-451,-15,999.61,52,66.3
"2017-04-06 15:15:21+00",12.5,17.5,,52.3,-173,-504,16,999.76,52.4,74.3
"2017-04-06 15:20:21+00",9.7,12.7,,53.2,-132,-391,6,999.55,53.2,96.6
"2017-04-06 15:25:21+00",13.4,16.4,,54,-83,-554,-22,999.27,54,140.5
"2017-04-06 15:30:21+00",11.1,15.1,,54.6,-23,-459,22,998.93,54.8,135.2
"2017-04-06 15:35:21+00",15.6,17.6,,54.6,65,-656,-13,998.65,54.9,90.6
"2017-04-06 15:40:21+00",19.2,25.2,,54.2,70,-827,-21,998.56,54.5,102.7
"2017-04-06 15:45:21+00",18.7,22.7,,54.5,138,-787,-29,998.02,54.7,109.8
"2017-04-06 15:50:21+00",19.4,23.4,,54.7,52,-828,-33,998.06,55,104.2
"2017-04-06 15:55:21+00",17.6,21.6,,54.6,59,-757,-4,997.93,54.9,105.2
"2017-04-06 16:00:21+00",19.2,24.2,,54.7,50,-822,-37,997.73,55,108.2
"2017-04-06 16:05:21+00",18.8,23.8,,54.5,129,-788,-9,997.48,54.9,112.6
"2017-04-06 16:10:21+00",20.4,24.4,,54.1,140,-855,-13,997.17,54.5,86.8
"2017-04-06 16:15:21+00",18.4,21.4,,54.1,84,-780,-7,997.02,54.4,48.8
"2017-04-06 16:20:21+00",21.5,26.5,,54.3,53,-905,-24,996.94,54.4,42.9
"2017-04-06 16:25:21+00",23.9,29.9,,54.1,34,-1014,-35,996.99,54.1,48.8
"2017-04-06 16:30:21+00",19.8,24.8,,54.1,-15,-838,-34,996.81,54.2,106.1
"2017-04-06 16:35:21+00",19.5,28.5,,55.1,-83,-828,-30,996.49,55.1,176.8
"2017-04-06 16:40:21+00",19.1,27.1,,56,-136,-800,-4,996.28,56.1,209.6
"2017-04-06 16:45:21+00",18.2,27.2,,56.5,-169,-756,7,995.91,56.8,218.1
"2017-04-06 16:50:21+00",17.4,21.4,,56.6,-142,-733,-6,995.58,57.1,212.2
"2017-04-06 16:55:21+00",15.7,22.7,,56.2,-74,-668,5,995.44,56.8,230.6
"2017-04-06 17:00:21+00",16.8,18.8,,55.8,-71,-716,-12,995.02,56.7,362.2
"2017-04-06 17:05:21+00",15.8,22.8,,55.9,24,-667,-17,994.61,56.9,349.1
"2017-04-06 17:10:21+00",17.2,21.2,,55,119,-727,1,994.24,56.4,338.2
"2017-04-06 17:15:21+00",15.1,17.1,,53.9,74,-637,-20,994.03,55.2,84.7
"2017-04-06 17:20:21+00",13.6,18.6,,53.3,-49,-568,-4,994.09,54.1,23.7
"2017-04-06 17:25:21+00",14.3,17.3,,53.4,-5,-599,9,993.83,53.7,20.4
"2017-04-06 17:30:21+00",16.7,20.7,,53.9,107,-707,-19,993.85,54.3,34.9
"2017-04-06 17:35:21+00",16.7,19.7,,53.8,115,-712,-10,993.76,54.1,97.2
"2017-04-06 17:40:21+00",15.5,19.5,,54.2,137,-621,-1,993.34,55,252.1
"2017-04-06 17:45:21+00",18.6,22.6,,54.5,77,-789,-37,993.26,55.1,102.8
"2017-04-06 17:50:21+00",17.7,20.7,,54,132,-761,-24,992.92,54.7,72.5
"2017-04-06 17:55:21+00",16.1,19.1,,53.3,204,-668,-2,992.65,54.1,89.4
"2017-04-06 18:00:21+00",16.9,20.9,,52.9,314,-664,0,992.2,53.6,77.2
"2017-04-06 18:05:21+00",17.5,19.5,,52.6,313,-698,-11,991.94,53.5,150.9
"2017-04-06 18:10:21+00",23.0,27.0,,53.2,503,-866,-19,991.58,53.8,90.1
"2017-04-06 18:15:21+00",21.8,24.8,,53.4,427,-826,14,991.42,53.7,28.1
"2017-04-06 18:20:21+00",25.4,29.4,,53.9,496,-992,-7,991.1,53.9,16.4
"2017-04-06 18:25:21+00",27.4,31.4,,54.5,488,-1071,-15,990.97,54.3,6.8
"2017-04-06 18:30:21+00",28.5,33.5,,54.9,518,-1148,-20,990.67,54.7,8.3
"2017-04-06 18:35:21+00",31.1,36.1,,55.1,561,-1229,-4,990.4,54.9,11
"2017-04-06 18:40:21+00",31.5,37.5,,55.1,606,-1231,-2,989.94,54.9,30.4
"2017-04-06 18:45:21+00",30.3,35.3,,55.1,632,-1168,3,989.72,55,56.9
"2017-04-06 18:50:21+00",30.2,35.2,,55,641,-1164,10,989.52,54.9,16.6
"2017-04-06 18:55:21+00",33.1,37.1,,55.2,760,-1221,-37,988.94,55,4.6
"2017-04-06 19:00:21+00",34.4,39.4,,55.2,824,-1251,-34,988.68,54.9,17.9
"2017-04-06 19:05:21+00",33.7,38.7,,55.3,801,-1253,-4,988.46,55,2.3
"2017-04-06 19:10:21+00",34.7,39.7,,55.2,759,-1325,-3,988.56,54.9,0
"2017-04-06 19:15:21+00",36.1,41.1,,55.2,691,-1404,-11,988.6,54.6,0
"2017-04-06 19:20:21+00",33.6,36.6,,55,720,-1269,10,988.27,54.4,0
"2017-04-06 19:25:21+00",32.9,36.9,,53.2,1527,-1108,-364,988.89,53.8,0
"2017-04-06 19:30:21+00",41.9,47.9,,55.3,1503,-6,989,987.97,54.9,0
"2017-04-06 19:35:21+00",29.6,35.6,,54,354,-1181,28,989.22,54,0
"2017-04-06 19:40:21+00",19.8,23.8,,54.2,120,-847,-32,989.07,54.1,0
"2017-04-06 19:45:21+00",23.4,32.4,,54.7,157,-968,-41,989.02,54.5,0
"2017-04-06 19:50:21+00",18.7,22.7,,55.7,-15,-813,-15,988.82,55.1,0
"2017-04-06 19:55:21+00",19.9,28.9,,56.2,-370,-779,24,988.59,55.4,0
"2017-04-06 20:00:21+00",26.7,30.7,,56.6,-785,-930,30,989,55.1,0
"2017-04-06 20:05:21+00",54.8,67.8,,57.2,-1401,-1665,65,989.88,56.5,0
"2017-04-06 20:10:21+00",27.3,32.3,,55.7,-888,-1014,-50,990.22,55.3,0.1
"2017-04-06 20:15:21+00",21.1,24.1,,55,-690,-586,28,990.14,54.6,0
"2017-04-06 20:20:21+00",19.6,21.6,,55,-668,-506,26,989.96,54.3,12.8
"2017-04-06 20:25:21+00",16.1,18.1,,55.3,-602,-387,38,989.25,54.3,47.5
"2017-04-06 20:30:21+00",17.5,19.5,,55.3,-559,-507,25,989.64,54.1,0
"2017-04-06 20:35:21+00",18.6,21.6,,55.8,-528,-625,13,989.5,54.2,4
"2017-04-06 20:40:21+00",18.9,20.9,,55.6,-508,-663,23,989.49,54.1,0.9
"2017-04-06 20:45:21+00",20.3,22.3,,55.5,-598,-687,24,989.62,54,20.8
"2017-04-06 20:50:21+00",20.6,23.6,,55.6,-596,-694,25,989.49,54.3,113.7
"2017-04-06 20:55:21+00",19.4,21.4,,55.5,-485,-706,22,989.28,54.5,279.7
"2017-04-06 21:00:21+00",20.6,22.6,,55.5,-532,-740,19,989.34,54.6,256.8
"2017-04-06 21:05:21+00",19.4,21.4,,55.4,-572,-660,31,989.4,54.6,227.3
"2017-04-06 21:10:21+00",16.6,18.6,,55.4,-465,-577,18,989.24,54.6,212.2
"2017-04-06 21:15:21+00",18.3,19.3,,55.3,-499,-638,14,989.29,54.6,200.4
"2017-04-06 21:20:21+00",17.3,19.3,,55.1,-450,-627,9,989.09,54.5,200.3
"2017-04-06 21:25:21+00",16.5,17.5,,54.8,-387,-617,9,989.02,54.4,189.5
"2017-04-06 21:30:21+00",16.9,18.9,,54.7,-411,-629,5,989.05,54.3,183.3
"2017-04-06 21:35:21+00",16.7,17.7,,54.7,-494,-565,14,989.35,54.4,171.9
"2017-04-06 21:40:21+00",18.3,20.3,,54.8,-563,-607,20,989.63,54.5,162.9
"2017-04-06 21:45:21+00",16.5,18.5,,54.9,-488,-562,17,989.61,54.6,152.5
"2017-04-06 21:50:21+00",15.1,17.1,,54.8,-453,-511,5,989.54,54.6,144.2
"2017-04-06 21:55:21+00",14.7,15.7,,54.7,-341,-552,0,989.49,54.6,134.5
"2017-04-06 22:00:21+00",17.5,19.5,,54.8,-320,-673,-6,989.61,54.6,122.1
"2017-04-06 22:05:21+00",14.3,16.3,,54.7,-228,-563,1,989.8,54.6,109.7
"2017-04-06 22:10:21+00",13.9,15.9,,53.4,-190,-568,1,989.84,53.8,99.1
"2017-04-06 22:15:21+00",14.3,16.3,,53.1,-245,-558,-5,989.76,53.4,90.7
"2017-04-06 22:20:21+00",20.9,24.9,,56.7,-889,-413,58,989.58,53.8,78.1
"2017-04-06 22:25:21+00",20.6,23.6,,57.8,-825,-466,29,989.69,55.1,68
"2017-04-06 22:30:21+00",20.0,21.0,,57.8,-890,-419,45,989.78,55.9,55
"2017-04-06 22:35:21+00",20.9,22.9,,57.7,-831,-474,45,990.01,56.3,44.7
"2017-04-06 22:40:21+00",23.3,28.3,,57.9,-996,-504,52,989.98,56.4,34.6
"2017-04-06 22:45:21+00",21.7,25.7,,57.6,-884,-486,38,990.11,56.5,0
"2017-04-06 22:50:21+00",19.6,22.6,,57.8,-844,-424,42,990.22,56.7,11.5
"2017-04-06 22:55:21+00",21.2,25.2,,58,-932,-443,37,990.25,56.8,0
"2017-04-06 23:00:21+00",20.3,25.3,,57.6,-890,-376,31,990.43,56.5,0.5
"2017-04-06 23:05:21+00",23.3,28.3,,58,-1034,-432,45,990.6,56.6,0.2
"2017-04-06 23:10:21+00",25.1,34.1,,58.2,-1103,-416,20,990.73,56.7,0
"2017-04-06 23:15:21+00",25.8,28.8,,58.1,-1076,-319,50,990.75,56.4,0
"2017-04-06 23:20:21+00",21.7,23.7,,57.4,-914,-273,26,990.76,56,0
"2017-04-06 23:25:21+00",18.5,19.5,,56.9,-807,-291,38,991,55.7,0
"2017-04-06 23:30:21+00",19.9,22.9,,57,-839,-246,48,991.08,55.5,0
"2017-04-06 23:35:21+00",19.1,21.1,,56.7,-814,-146,29,990.96,55.3,0
"2017-04-06 23:40:21+00",18.5,20.5,,56.9,-797,-104,36,991.03,55.4,0
"2017-04-06 23:45:21+00",16.6,18.6,,56.5,-716,-114,17,991.14,55.3,0
"2017-04-06 23:50:21+00",15.6,18.6,,56.4,-657,-145,31,991.25,55.1,0
"2017-04-06 23:55:21+00",15.1,17.1,,56.1,-642,-214,25,991.45,54.8,0
